Oak Ridge, TN

7:52 PM EST on December 09, 2019 (GMT -0500)
Oak Ridge

Weather History for KOQT - November, 2019

Change the Weather History Date:

Sunday, November 17, 2019

  Actual Average (WUND) Record (WUND)
Temperature  
Mean Temperature 46 °F -  
Max Temperature 61 °F - - (-1)
Min Temperature 30 °F - - (-1)
Degree Days  
Heating Degree Days 20    
Moisture  
Dew Point 33 °F    
Average Humidity 66    
Maximum Humidity 85    
Minimum Humidity 36    
Precipitation  
Precipitation 0.00 in - - ()
Sea Level Pressure  
Sea Level Pressure 30.03 in    
Wind  
Wind Speed 1 mph ()    
Max Wind Speed 6 mph    
Max Gust Speed -    
Visibility 10.0 miles    
Events      
Averages and records for this station are not official NWS values.
T = Trace of Precipitation, MM = Missing Value Source: Averaged Metar Reports

Daily Weather History Graph

Daily Weather History Graph

Search for Another Location

Airport or City:

Astronomy

Nov. 17, 2019 Rise Set
Actual Time 7:15 AM EST 5:28 PM EST
Civil Twilight 6:47 AM EST 5:55 PM EST
Nautical Twilight 6:16 AM EST 6:26 PM EST
Astronomical Twilight 5:46 AM EST 6:57 PM EST
Moon 10:05 PM EST (11/17) 11:57 AM EST (11/17)
Length of Visible Light 11h 07m
Length of Day
10h 12m
Waning Gibbous, 73% of the Moon is Illuminated
Nov 17
Waning Gibbous
Nov 19
Last Quarter
Nov 26
New
Dec 4
First Quarter
Dec 12
Full

Hourly Weather History & Observations

Time (EST) Temp. Dew Point Humidity Pressure Visibility Wind Dir Wind Speed Gust Speed Precip Events Conditions
12:53 AM 35.1 °F 28.9 °F 78% 30.12 in 10.0 mi Calm Calm - N/A   Clear
1:53 AM 34.0 °F 28.0 °F 79% 30.12 in 10.0 mi Calm Calm - N/A   Clear
2:53 AM 33.1 °F 28.0 °F 82% 30.12 in 10.0 mi Calm Calm - N/A   Clear
3:53 AM 32.0 °F 27.0 °F 82% 30.12 in 10.0 mi Calm Calm - N/A   Clear
4:53 AM 30.9 °F 27.0 °F 85% 30.13 in 10.0 mi Calm Calm - N/A   Clear
5:53 AM 30.9 °F 27.0 °F 85% 30.14 in 10.0 mi Calm Calm - N/A   Clear
6:53 AM 32.0 °F 28.0 °F 85% 30.16 in 10.0 mi Calm Calm - N/A   Clear
7:53 AM 32.0 °F 28.0 °F 85% 30.16 in 10.0 mi Calm Calm - N/A   Clear
8:53 AM 37.0 °F 32.0 °F 82% 30.15 in 10.0 mi Calm Calm - 0.00 in   Clear
10:53 AM 46.9 °F 30.9 °F 54% 30.10 in 10.0 mi Calm Calm - N/A   Clear
11:53 AM 51.1 °F 32.0 °F 48% 30.06 in 10.0 mi Variable 3.5 mph - N/A   Clear
12:53 PM 55.9 °F 33.1 °F 42% 30.02 in 10.0 mi Variable 3.5 mph - N/A   Clear
1:53 PM 60.1 °F 33.1 °F 36% 29.98 in 10.0 mi Variable 4.6 mph - N/A   Clear
2:53 PM 61.0 °F 35.1 °F 38% 29.96 in 10.0 mi West 5.8 mph - N/A   Clear
3:53 PM 60.1 °F 35.1 °F 39% 29.95 in 10.0 mi West 4.6 mph - N/A   Clear
4:53 PM 59.0 °F 36.0 °F 42% 29.94 in 10.0 mi Calm Calm - N/A   Clear
5:53 PM 53.1 °F 37.0 °F 55% 29.95 in 10.0 mi Calm Calm - N/A   Clear
6:53 PM 51.1 °F 37.0 °F 59% 29.95 in 10.0 mi Calm Calm - N/A   Clear
7:53 PM 48.9 °F 37.9 °F 66% 29.95 in 10.0 mi Calm Calm - N/A   Clear
8:53 PM 46.9 °F 37.9 °F 71% 29.94 in 10.0 mi Calm Calm - N/A   Clear
9:53 PM 45.0 °F 37.0 °F 74% 29.91 in 10.0 mi Calm Calm - N/A   Clear
10:53 PM 44.1 °F 37.0 °F 76% 29.90 in 10.0 mi Calm Calm - N/A   Clear
11:53 PM 44.1 °F 37.0 °F 76% 29.90 in 10.0 mi Calm Calm - N/A   Mostly Cloudy